www.pogodaiklimat.ru

Погода и климат >> Архив погоды >> Таиланд >> Сурин Агромет


ПОГОДА в Сурин Агромете

  • Прогноз погоды в Сурин Агромете
  • Монитор погоды в Сурин Агромете

АРХИВ ПОГОДЫ в Сурин Агромете

Время (UTC), дата Ветер
(напр.,м/с)
 
Видим.   Явления Облачность Т
(С)
Тd
(С)
f
(%)
Тe
(С)
Тes
(С)
Комфортность P
(гПа)
Po
(гПа)
Тmin
(С)
Tmax
(С)
R
(мм)
R24
(мм)
S
(см)
09 10.07 Ю 6 11 км 8/3 600 м
[Sc Ac As Cs]
+34.7 +24.0 54 +46 +48 опасность
перегрева
1005.9 989.9
12 10.07 Ю 2 8000 м дымка 4/1 600 м
[Sc Ac As Cs]
+31.2 +24.0 66 +43 +43 опасность
перегрева
1006.5 990.3 +35.2
15 10.07 Ю 1 7000 м дымка 3/0
[Cs]
+28.5 +23.7 75 +39 +39 очень
душно
1009.5 993.1
18 10.07 Ю 1 6000 м дымка 3/0
[Cs]
+27.0 +23.3 80 +36 +36 очень
душно
1009.3 992.8
21 10.07 ЮЗ 2 6000 м дымка 1/0
[Cs]
+25.8 +23.2 86 +35 +35 очень
душно
1009.2 992.7
00 11.07 Ю 2 10 км 8/0
[Cs]
+26.2 +23.7 86 +36 +37 очень
душно
1010.7 994.2 +24.5
03 11.07 ЮЗ 3 10 км 8/0
[Cs]
+31.5 +23.9 64 +43 +55 опасность
перегрева
1011.4 995.2
06 11.07 ЮЗ 4 14 км 8/3 600 м
[Cu med, cong Cs]
+34.2 +22.9 52 +44 +53 опасность
перегрева
1009.6 993.5
09 11.07 штиль 0 14 км 8/1 300 м
[Cb cap Cs]
+36.0 +22.4 46 +45 +52 опасность
перегрева
1007.5 991.6
12 11.07 Ю 2 8000 м мгла 10/1 600 м
[Sc diur, vesp Ac und Cs]
+32.1 +24.1 63 +44 +44 опасность
перегрева
1008.1 991.9 +36.6
15 11.07 Ю 2 6000 м дымка 8/0
[Cs]
+29.0 +24.3 76 +41 +41 опасность
перегрева
1010.4 994.0
18 11.07 Ю 2 6000 м дымка 3/0
[Cs]
+27.3 +22.7 76 +36 +36 очень
душно
1009.9 993.5
21 11.07 Ю 2 6000 м дымка ясно +25.7 +23.0 85 +34 +34 очень
душно
1009.2 992.7
00 12.07 З 3 8000 м дымка 3/0
[Cs]
+26.0 +23.1 84 +35 +36 очень
душно
1010.8 994.2 +24.3
03 12.07 штиль 0 10 км 3/0
[Cs]
+32.5 +22.8 57 +43 +63 опасность
перегрева
1010.4 994.3
06 12.07 Ю 2 10 км 3/3 600 м
[Cu hum Cs]
+36.0 +23.4 48 +46 +61 опасность
перегрева
1008.1 992.1
09 12.07 ЮЗ 3 10 км 3/3 600 м
[Cu med, cong Cs]
+36.8 +23.2 46 +47 +51 опасность
перегрева
1006.2 990.3
12 12.07 штиль 0 10 км 3/3 600 м
[Cu med, cong Cs]
+32.0 +23.8 62 +43 +43 опасность
перегрева
1006.6 990.5 +37.5
15 12.07 ЮЗ 2 8000 м дымка 3/1 600 м
[Sc Cs]
+29.5 +22.9 68 +39 +39 очень
душно
1009.0 992.7
18 12.07 штиль 0 7000 м дымка 3/0
[Cs]
+28.0 +22.4 72 +37 +37 очень
душно
1008.9 992.4
21 12.07 ЮЗ 3 7000 м дымка 8/3 600 м
[Sc Ac As Cs]
+26.9 +22.1 75 +35 +35 очень
душно
1008.6 992.1
00 13.07 ЮЗ 2 6000 м дымка 6/0
[Cs]
+27.0 +22.9 78 +36 +38 очень
душно
1009.2 992.7 +25.5
03 13.07 З 4 10 км 3/0
[Cs]
+32.4 +23.5 59 +43 +54 опасность
перегрева
1009.6 993.4
06 13.07 З 2 12 км 3/3 600 м
[Sc]
+35.7 +23.2 49 +46 +61 опасность
перегрева
1006.9 990.9
09 13.07 ЮЗ 4 12 км 4/4 600 м
[Sc]
+37.0 +22.6 44 +46 +49 опасность
перегрева
1003.9 988.0
12 13.07 Ю 2 8000 м гроза без осадков 10/4 600 м
[Cb cap Ac As Cs]
+28.5 +25.2 82 +41 +41 опасность
перегрева
1004.9 988.6 +37.5 2
15 13.07 ЮЗ 4 7000 м дымка 8/3 600 м
[Sc Ac As Cs]
+27.8 +22.8 74 +37 +37 очень
душно
1007.8 991.4
18 13.07 Ю 1 5000 м дымка {гроза} 3/0
[Cs]
+26.5 +24.9 91 +38 +38 очень
душно
1007.4 990.9 5
21 13.07 Ю 2 5000 м дымка 1/0
[Cs]
+26.0 +24.1 89 +36 +36 очень
душно
1006.9 990.5
00 14.07 Ю 2 9000 м дымка 8/0
[Cs]
+25.6 +24.0 91 +35 +37 очень
душно
1007.5 991.0 +24.5
03 14.07 ЮЗ 6 10 км 8/0
[Cs]
+30.7 +23.5 66 +42 +47 опасность
перегрева
1007.8 991.6
06 14.07 Ю 5 10 км 8/0
[Cs]
+34.4 +24.2 55 +46 +56 опасность
перегрева
1005.2 989.1
09 14.07 ЮЗ 3 12 км 8/1 300 м
[Cb cap Ac lent Cs]
+35.0 +22.7 49 +45 +48 опасность
перегрева
1003.4 987.5
12 14.07 штиль 0 7000 м мгла 10/0
[Ac und Cs]
+32.1 +22.8 58 +42 +42 опасность
перегрева
1003.9 987.8 +36.3
15 14.07 Ю 3 6000 м дымка 8/0
[Cs]
+28.7 +24.1 76 +40 +40 очень
душно
1006.1 989.8
18 14.07 ЮЗ 3 6000 м дымка 5/0
[Cs]
+28.0 +23.3 76 +38 +38 очень
душно
1006.3 990.0
21 14.07 ЮЗ 3 6000 м дымка 3/0
[Cs]
+26.7 +23.5 83 +36 +36 очень
душно
1005.3 988.9
00 15.07 штиль 0 8000 м дымка 3/0
[Cs]
+26.3 +23.7 86 +36 +39 очень
душно
1005.5 989.1 +24.8
03 15.07 штиль 0 10 км 3/0
[Cs]
+31.8 +22.4 58 +41 +62 опасность
перегрева
1006.3 990.2
06 15.07 штиль 0 10 км 3/1 600 м
[Cu hum Cs]
+34.7 +22.5 49 +44 +68 опасность
перегрева
1004.5 988.5
09 15.07 ЮЗ 6 10 км 4/3 600 м
[Cu med, cong Cs]
+36.4 +22.9 46 +46 +48 опасность
перегрева
1002.3 986.5
12 15.07 штиль 0 10 км 6/3 600 м
[Sc Cs]
+32.5 +24.1 61 +44 +44 опасность
перегрева
1003.2 987.1 +37.7
15 15.07 штиль 0 7000 м гроза, ливневой дождь 10/3 300 м
[Cb cap Ac As Cs]
+25.2 +23.9 93 +35 +35 очень
душно
1007.3 990.8 17
18 15.07 штиль 0 7000 м дымка {гроза, дождь} 10/3 600 м
[Sc Ac As Cs]
+25.2 +24.3 95 +35 +35 очень
душно
1005.8 989.3 3
21 15.07 ЮЗ 2 7000 м дымка 3/0
[Cs]
+25.2 +24.3 95 +35 +35 очень
душно
1005.1 988.6
00 16.07 штиль 0 6000 м дымка 3/0
[Cs]
+25.8 +25.2 96 +37 +40 очень
душно
1005.5 989.0 +24.0
03 16.07 З 2 10 км 1/0
[Ac und Ci fib]
+31.0 +23.3 64 +42 +57 опасность
перегрева
1006.1 989.9
06 16.07 Ю 2 11 км 3/0
[Ac trans]
+34.2 +23.1 52 +44 +61 опасность
перегрева
1004.2 988.2
09 16.07 ЮЗ 1 12 км 1/0
[Cs]
+36.0 +24.3 51 +48 +56 опасность
перегрева
1001.3 985.5
12 16.07 ЮВ 2 9000 м мгла 3/3 600 м
[Sc Cs]
+33.2 +24.7 61 +46 +46 опасность
перегрева
1001.6 985.6 +36.7
15 16.07 Ю 3 7000 м дымка 8/3 600 м
[Sc Ac As Cs]
+29.5 +23.9 72 +41 +41 опасность
перегрева
1004.6 988.4
18 16.07 Ю 2 6000 м дымка 6/0
[Ac lent Cs]
+28.2 +23.9 78 +39 +39 очень
душно
1004.5 988.2
21 16.07 штиль 0 6000 м дымка 3/0
[Cs]
+26.5 +24.3 88 +37 +37 очень
душно
1003.9 987.5
00 17.07 ЮЗ 3 9000 м дымка 8/0
[Cs]
+26.7 +25.0 90 +38 +40 очень
душно
1005.0 988.6 +25.4
03 17.07 Ю 3 12 км 8/0
[Cs]
+31.0 +24.9 70 +44 +56 опасность
перегрева
1006.0 989.8

 

Местоположение метеостанции Сурин Агромет (Таиланд): широта 14.88 долгота 103.45 высота над уровнем моря 145 м.

В архиве по умолчанию представлена погода в Сурин Агромете за последнюю неделю. Архивные данные за месяц целиком и за предыдущие месяцы, начиная с января 2011 года, Вы можете получить, выбрав интересующий диапазон дат из раскрывающегося списка и нажав кнопку "Ввод!".


*Определитесь, кто Вы:
робот инопланетянин человек

Внимание! Время в таблицах - всемирное. Для получения местного времени необходимо прибавить поправку, которая равна 7 ч.

Смотрите также архив погоды в соседних городах и на ближайших метеорологических станциях:

Погода в Сурине (Таиланд) (5 км)
Погода в Бури-Рам (Таиланд) (44 км)
Погода в Тха Тум (Таиланд) (55 км)
Погода в Нанг Ронг (Таиланд) (77 км)
Погода в Си Сакет Агромете (Таиланд) (88 км)
Погода в Рой Эт (Таиланд) (132 км)
Погода в Рой Эт Агромете (Таиланд) (134 км)
Погода в Чок Чай (Таиланд) (140 км)
Погода в Накхон Ратчасима (Таиланд) (148 км)
Погода в Косумпхисаи (Таиланд) (156 км)

Пояснения к столбцам:

Ветер - указаны скорость ветра в м/с - средняя за 10 мин, порывы в срок и между сроками (в фигурных скобках) и направление, откуда дует ветер: С - северный, СВ - северо-восточный, В - восточный, ЮВ - юго-восточный, Ю - южный, ЮЗ - юго-западный, З - западный, СЗ - северо-западный.
Видимость - горизонтальная дальность видимости в метрах или километрах. При видимости от 1 до 10 км при отсутствии осадков обычно наблюдается дымка, при ухудшении видимости до 1 км и менее - туман. В сухую погоду видимость может ухудшаться дымом, пылью или мглою.
Явления - указаны атмосферные явления, наблюдавшиеся в срок или в последний час перед сроком; фигурными скобками обозначены явления, наблюдавшиеся между сроками (за 1-3 часа до срока); квадратными скобками обозначены град или гололедные отложения с указанием их диаметра в мм.
Облачность - указаны через наклонную черту общая и нижняя облачность в баллах и высота нижней границы облаков в метрах; квадратными скобками обозначены формы облаков: Ci - перистые, Cs - перисто-слоистые, Cc - перисто-кучевые, Ac - высококучевые, As - высокослоистые, Sc - слоисто-кучевые, Ns - слоисто-дождевые, Cu - кучевые, Cb - кучево-дождевые. Подробнее классификацию облаков см. в Атласе облаков (PDF).
T - Температура воздуха - температура, измеренная на высоте 2 м над землей.
Td - Температура точки росы - температура, при понижении до которой содержащийся в воздухе водяной пар достигнет насыщения.
f - Относительная влажность воздуха - влажноcть воздуха, измеренная на высоте 2 м над землей.
Te - Эффективная температура - температура, которую ощущает одетый по сезону человек в тени. Характеристика душности погоды. При расчете учитывается влияние влажности воздуха и скорости ветра на теплоощущения человека.
Tes - Эффективная температура на солнце - температура, которую ощущает человек, с поправкой на солнечный нагрев. Характеристика знойности погоды. Зависит от высоты солнца над горизонтом, облачности и скорости ветра. Ночью, в пасмурную погоду, а также при ветре 12 м/с и более поправка равна нулю.
P - Атмосферное давление - приведенное к уровню моря атмосферное давление.
Po - Атмосферное давление - измеренное на уровне метеостанции атмосферное давление.
Tmin - Минимальная температура - минимум температуры воздуха на высоте 2 м над землей.
Tmax - Максимальная температура - максимум температуры воздуха на высоте 2 м над землей.
R - Количество осадков - Количество выпавших осадков за период времени, мм. При наведении курсора мыши на число - период времени, за который выпало указанное количество осадков.
R24 - Количество осадков - Количество выпавших осадков за 24 часа, мм.
S - Снежный покров - Высота снежного покрова, см. При наведении курсора мыши на число - состояние снежного покрова и степень покрытия местности в баллах.